Weather Roundup
Issued by NWS

Home | Current Version | Previous Version | Graphics & Text | Print | Product List | Glossary Off
Versions: 1 2 3 4 5 6 7 8 9 10 11 12 13 14 15 16 17 18 19 20 21 22 23 24 25 26 27 28 29 30 31 32 33 34 35 36 37 38 39 40 41 42 43 44 45 46 47 48 49 50

000
NZUS93 KARX 031410
HRRWXR

CURRENT HOURLY OBSERVATIONS ACROSS
MUCH OF THE UPPER MISSISSIPPI VALLEY
NATIONAL WEATHER SERVICE LA CROSSE WI
900 AM CDT SUN MAY 03 2015


...SOUTHEAST MINNESOTA...


CITY           SKY/WX    TMP DP  RH WIND       PRES   REMARKS
ROCHESTER      PTSUNNY   59  51  75 S9        29.82S
ROCHESTER/MAYO FAIR      58  51  76 SE7       29.82R
WINONA         CLOUDY    63  50  63 S6        29.82S
AUSTIN         PTSUNNY   63  54  72 S10       29.80S
ALBERT LEA     PTSUNNY   64  54  68 S7        29.79S
DODGE CENTER   MOSUNNY   63  54  72 SW12      29.81R
PRESTON        CLOUDY    59  51  72 S10       29.82S
OWATONNA       PTSUNNY   64  52  63 S9        29.80R
FARIBAULT      PTSUNNY   63  52  67 S7        29.80R
$$

...ELSEWHERE IN MINNESOTA...


CITY           SKY/WX    TMP DP  RH WIND       PRES   REMARKS
MINNEAPOLIS    PTSUNNY   61  51  70 S8        29.79R
INTNL FALLS    MOSUNNY   60  45  57 W9        29.72R
DULUTH         MOSUNNY   67  53  61 W18       29.74R
RED WING       PTSUNNY   63  50  63 SE5       29.79S
REDWOOD FALLS  MOSUNNY   61  53  75 E5        29.76R
MANKATO        CLOUDY    61  48  63 S6        29.79R
WORTHINGTON    MOSUNNY   63  52  67 SW7       29.77S
FAIRMONT       MOSUNNY   63  50  63 S9        29.78R
$$

...SOUTHWEST WISCONSIN...


CITY           SKY/WX    TMP DP  RH WIND       PRES   REMARKS
LA CROSSE      CLOUDY    66  51  58 S10       29.83R
PRAIRIE DU CHI CLOUDY    64  48  56 SE6       29.84F
BOSCOBEL       CLOUDY    66  50  56 S8        29.86R
LONE ROCK      CLOUDY    66  51  58 S7        29.88R
PLATTEVILLE    CLOUDY    63  51  64 S14       29.88S
FORT MC COY    CLOUDY    65  48  52 SW8       29.86R
CAMP DOUGLAS   CLOUDY    66  50  55 S6        29.85R
VIROQUA        FAIR      63  49  61 S13       29.86R
WIS DELLS      NOT AVBL
$$

...ELSEWHERE IN WISCONSIN...


CITY           SKY/WX    TMP DP  RH WIND       PRES   REMARKS
MILWAUKEE      PTSUNNY   69  44  40 S13       29.94S
MADISON        CLOUDY    63  50  62 S13       29.90S
GREEN BAY      PTSUNNY   67  50  54 S13       29.89S
EAU CLAIRE     PTSUNNY   64  50  60 S9        29.80F
BLACK RVR FLS  FAIR      65  49  55 S5        29.84S
MEDFORD        CLOUDY    60  50  69 S8        29.86S
WAUSAU         CLOUDY    61  49  64 SW10      29.85R
WIS RAPIDS     CLOUDY    65  48  54 SW10      29.87S
MARSHFIELD     CLOUDY    64  49  57 SW8       29.86S
RICE LAKE      PTSUNNY   62  50  63 SE10      29.79F
$$

...NORTHEAST IOWA...


CITY           SKY/WX    TMP DP  RH WIND       PRES   REMARKS
DECORAH        CLOUDY    63  50  63 S13       29.83R
MASON CITY     PTSUNNY   63  54  72 S13       29.82R
CHARLES CITY   CLOUDY    61  57  88 S16       29.82R
OELWEIN        CLOUDY    63  52  67 S18       29.85R
$$

...ELSEWHERE IN IOWA...


CITY           SKY/WX    TMP DP  RH WIND       PRES   REMARKS
DES MOINES     PTSUNNY   67  56  67 S12       29.80S
IOWA CITY      LGT RAIN  59  53  80 SE14      29.87F
FORT DODGE     SUNNY     64  55  72 S5        29.81R
$$

...NORTHERN ILLINOIS...


CITY           SKY/WX    TMP DP  RH WIND       PRES   REMARKS
CHICAGO-OHARE  PTSUNNY   67  43  41 SW12      29.97S
CHICAGO-MIDWAY PTSUNNY   69  45  41 S9        29.98S
MOLINE         LGT RAIN  61  51  70 S6        29.92F
ROCKFORD       CLOUDY    66  47  50 S13       29.96S
PEORIA         CLOUDY    66  48  52 S10       29.99R
$$

NOTE: "FAIR" INDICATES FEW OR NO CLOUDS BELOW 12,000 FEET WITH NO
SIGNIFICANT WEATHER AND/OR OBSTRUCTIONS TO VISIBILITY. WIND
SPEEDS ARE IN MILES-PER-HOUR.



USA.gov is the U.S. government's official web portal to all federal, state and local government web resources and services.